Weather History for Gambell, AK

Change the Weather History Date:

Friday, June 21, 2013

  Actual Average Record
Temperature  
Mean Temperature 44 °F -  
Max Temperature 46 °F 43 °F 48 °F (2004)
Min Temperature 41 °F 36 °F 35 °F (1998)
Degree Days  
Heating Degree Days 22    
Moisture  
Dew Point 39 °F    
Average Humidity 86    
Maximum Humidity 93    
Minimum Humidity 81    
Precipitation  
Precipitation 0.03 in - - ()
Sea Level Pressure  
Sea Level Pressure 29.68 in    
Wind  
Wind Speed 22 mph (SE)    
Max Wind Speed 28 mph    
Max Gust Speed 32 mph    
Visibility 9 miles    
Events      
Averages and records for this station are not official NWS values.
T = Trace of Precipitation, MM = Missing Value Source: NWS Daily Summary

Daily Weather History Graph

Daily Weather History Graph

Search for Another Location

Airport:

Trip Planner

Search our weather history database for the weather conditions in past years. The results will help you decide how hot, cold, wet, or windy it might be!

Date:

Astronomy

Jun. 21, 2013 Rise Set
Actual Time 5:03 AM AKDT 1:53 AM AKDT
Civil Twilight Sun does not rise Sun does not rise
Nautical Twilight Sun does not rise Sun does not rise
Astronomical Twilight Sun does not rise Sun does not rise
Moon 11:32 PM AKDT (6/21) 4:28 AM AKDT (6/21)
Length of Visible Light 24h 00m
Length of Day
20h 50m
Waxing Gibbous, 96% of the Moon is Illuminated
Jun 21
Waxing Gibbous
Jun 23
Full
Jun 29
Last Quarter
Jul 7
New
Jul 15
First Quarter

Hourly Weather History & Observations

Time (AKDT) Temp. Windchill Dew Point Humidity Pressure Visibility Wind Dir Wind Speed Gust Speed Precip Events Conditions
12:16 AM 44.6 °F 35.5 °F 42.8 °F 93% 29.71 in 10.0 mi SE 25.3 mph - N/A   Overcast
12:36 AM 44.6 °F 35.7 °F 42.8 °F 93% 29.72 in 8.0 mi SE 24.2 mph - N/A   Overcast
12:56 AM 44.6 °F 35.7 °F 42.8 °F 93% 29.72 in 9.0 mi SE 24.2 mph - N/A   Overcast
1:16 AM 44.6 °F 35.9 °F 41.0 °F 87% 29.72 in 10.0 mi SE 23.0 mph - N/A   Overcast
1:36 AM 44.6 °F 35.9 °F 41.0 °F 87% 29.72 in 10.0 mi SE 23.0 mph 26.5 mph N/A   Overcast
1:56 AM 44.6 °F 35.9 °F 39.2 °F 81% 29.72 in 10.0 mi SE 23.0 mph - N/A   Overcast
2:16 AM 44.6 °F 35.9 °F 39.2 °F 81% 29.72 in 9.0 mi SE 23.0 mph 28.8 mph N/A   Overcast
2:36 AM 44.6 °F 36.1 °F 39.2 °F 81% 29.72 in 10.0 mi SE 21.9 mph - N/A   Overcast
2:56 AM 44.6 °F 35.9 °F 39.2 °F 81% 29.72 in 10.0 mi ESE 23.0 mph - N/A   Overcast
3:16 AM 42.8 °F 34.3 °F 39.2 °F 87% 29.72 in 10.0 mi ESE 19.6 mph - N/A   Overcast
3:36 AM 42.8 °F 34.8 °F 39.2 °F 87% 29.72 in 10.0 mi ESE 17.3 mph 24.2 mph N/A   Overcast
3:56 AM 42.8 °F 34.8 °F 39.2 °F 87% 29.71 in 10.0 mi ESE 17.3 mph - N/A   Overcast
4:16 AM 42.8 °F 34.3 °F 39.2 °F 87% 29.71 in 10.0 mi SE 19.6 mph 26.5 mph N/A   Overcast
4:36 AM 42.8 °F 33.8 °F 39.2 °F 87% 29.70 in 10.0 mi ESE 21.9 mph - N/A   Overcast
4:56 AM 42.8 °F 34.0 °F 39.2 °F 87% 29.71 in 7.0 mi SE 20.7 mph - N/A   Overcast
5:16 AM 42.8 °F 36.6 °F 39.2 °F 87% 29.70 in 8.0 mi ESE 11.5 mph 20.7 mph N/A   Overcast
5:36 AM 42.8 °F 35.1 °F 39.2 °F 87% 29.70 in 10.0 mi ESE 16.1 mph 26.5 mph N/A   Overcast
5:56 AM 44.6 °F 36.4 °F 39.2 °F 81% 29.69 in 10.0 mi ESE 20.7 mph 27.6 mph N/A   Overcast
6:16 AM 44.6 °F 35.3 °F 39.2 °F 81% 29.68 in 10.0 mi ESE 26.5 mph - N/A   Overcast
6:36 AM 44.6 °F 35.9 °F 39.2 °F 81% 29.68 in 10.0 mi ESE 23.0 mph - N/A   Overcast
6:56 AM 44.6 °F 35.9 °F 39.2 °F 81% 29.68 in 10.0 mi ESE 23.0 mph - N/A   Overcast
7:16 AM 44.6 °F 36.9 °F 39.2 °F 81% 29.67 in 10.0 mi ESE 18.4 mph 25.3 mph N/A   Overcast
7:36 AM 44.6 °F 35.7 °F 39.2 °F 81% 29.67 in 10.0 mi ESE 24.2 mph 29.9 mph N/A   Overcast
7:56 AM 44.6 °F 35.7 °F 39.2 °F 81% 29.66 in 10.0 mi ESE 24.2 mph 31.1 mph N/A   Overcast
8:16 AM 44.6 °F 35.7 °F 39.2 °F 81% 29.66 in 10.0 mi SE 24.2 mph 31.1 mph N/A   Overcast
8:36 AM 42.8 °F 33.5 °F 39.2 °F 87% 29.66 in 8.0 mi SE 23.0 mph 32.2 mph N/A   Overcast
8:56 AM 42.8 °F 33.3 °F 39.2 °F 87% 29.65 in 7.0 mi ESE 24.2 mph - 0.01 in   Overcast
9:16 AM 42.8 °F 33.3 °F 39.2 °F 87% 29.65 in 9.0 mi ESE 24.2 mph - 0.02 in   Overcast
9:36 AM 42.8 °F 33.1 °F 39.2 °F 87% 29.64 in 6.0 mi SE 25.3 mph 29.9 mph 0.02 in   Overcast
9:56 AM 42.8 °F 32.9 °F 39.2 °F 87% 29.63 in 5.0 mi SE 26.5 mph - 0.02 in   Overcast
10:16 AM 42.8 °F 32.9 °F 39.2 °F 87% 29.63 in 5.0 mi SE 26.5 mph - N/A   Overcast
10:36 AM 42.8 °F 33.5 °F 39.2 °F 87% 29.64 in 10.0 mi SE 23.0 mph - N/A   Overcast
10:56 AM 42.8 °F 33.5 °F 39.2 °F 87% 29.64 in 10.0 mi SE 23.0 mph 28.8 mph N/A   Overcast
11:16 AM 42.8 °F 33.3 °F 37.4 °F 81% 29.63 in 10.0 mi SE 24.2 mph - N/A   Overcast
11:36 AM 42.8 °F 33.3 °F 39.2 °F 87% 29.64 in 10.0 mi SE 24.2 mph - N/A   Overcast
11:56 AM 41.0 °F 30.5 °F 37.4 °F 87% 29.64 in 10.0 mi SE 26.5 mph - N/A   Overcast
12:16 PM 41.0 °F 31.1 °F 39.2 °F 93% 29.64 in 10.0 mi SE 23.0 mph - N/A   Overcast
12:36 PM 41.0 °F 31.1 °F 39.2 °F 93% 29.65 in 10.0 mi SSE 23.0 mph - N/A   Overcast
12:56 PM 41.0 °F 30.5 °F 39.2 °F 93% 29.65 in 10.0 mi SSE 26.5 mph - N/A   Overcast
1:16 PM 41.0 °F 30.9 °F 37.4 °F 87% 29.65 in 10.0 mi SSE 24.2 mph 27.6 mph N/A   Overcast
1:36 PM 41.0 °F 30.9 °F 37.4 °F 87% 29.65 in 10.0 mi SSE 24.2 mph - N/A   Overcast
1:56 PM 42.8 °F 33.1 °F 39.2 °F 87% 29.66 in 7.0 mi SSE 25.3 mph - N/A   Overcast
2:16 PM 42.8 °F 33.1 °F 39.2 °F 87% 29.66 in 8.0 mi SSE 25.3 mph - N/A   Overcast
2:36 PM 42.8 °F 33.3 °F 39.2 °F 87% 29.66 in 7.0 mi SSE 24.2 mph - N/A   Overcast
2:56 PM 42.8 °F 32.9 °F 39.2 °F 87% 29.66 in 10.0 mi SSE 26.5 mph - N/A   Overcast
3:16 PM 42.8 °F 32.7 °F 39.2 °F 87% 29.66 in 8.0 mi SSE 27.6 mph - N/A   Overcast
3:36 PM 42.8 °F 33.1 °F 39.2 °F 87% 29.67 in 9.0 mi SSE 25.3 mph - N/A   Overcast
3:56 PM 42.8 °F 32.9 °F 39.2 °F 87% 29.67 in 9.0 mi SSE 26.5 mph - N/A   Overcast
4:16 PM 42.8 °F 33.1 °F 39.2 °F 87% 29.68 in 10.0 mi SSE 25.3 mph - N/A   Overcast
4:36 PM 42.8 °F 33.3 °F 39.2 °F 87% 29.67 in 10.0 mi SSE 24.2 mph - N/A   Overcast
4:56 PM 42.8 °F 33.1 °F 39.2 °F 87% 29.68 in 10.0 mi SSE 25.3 mph - N/A   Overcast
5:16 PM 42.8 °F 32.7 °F 39.2 °F 87% 29.67 in 10.0 mi SSE 27.6 mph - N/A   Overcast
5:36 PM 42.8 °F 33.1 °F 39.2 °F 87% 29.67 in 10.0 mi SSE 25.3 mph - N/A   Overcast
5:56 PM 42.8 °F 33.1 °F 39.2 °F 87% 29.68 in 10.0 mi SSE 25.3 mph 29.9 mph N/A   Overcast
6:16 PM 42.8 °F - 39.2 °F 87% 29.68 in 10.0 mi North - - N/A   Overcast
6:36 PM 44.6 °F 36.1 °F 39.2 °F 81% 29.69 in 10.0 mi SSE 21.9 mph - N/A   Overcast
6:56 PM 42.8 °F 34.5 °F 39.2 °F 87% 29.69 in 10.0 mi SSE 18.4 mph - N/A   Overcast
7:16 PM 44.6 °F 37.2 °F 39.2 °F 81% 29.68 in 10.0 mi SSE 17.3 mph - N/A   Overcast
7:36 PM 44.6 °F 39.7 °F 39.2 °F 81% 29.70 in 10.0 mi SE 9.2 mph 18.4 mph N/A   Overcast
7:56 PM 44.6 °F 36.1 °F 39.2 °F 81% 29.68 in 10.0 mi SE 21.9 mph - N/A   Overcast
8:16 PM 44.6 °F 36.6 °F 39.2 °F 81% 29.68 in 10.0 mi ESE 19.6 mph - N/A   Overcast
8:36 PM 44.6 °F 38.4 °F 39.2 °F 81% 29.69 in 10.0 mi ESE 12.7 mph - N/A   Overcast
8:56 PM 42.8 °F 36.2 °F 39.2 °F 87% 29.68 in 3.0 mi East 12.7 mph 17.3 mph N/A   Overcast
9:16 PM 42.8 °F 36.6 °F 41.0 °F 93% 29.68 in 4.0 mi East 11.5 mph - N/A   Overcast
9:36 PM 44.6 °F 38.8 °F 41.0 °F 87% 29.68 in 10.0 mi ESE 11.5 mph 21.9 mph N/A   Overcast
9:56 PM 42.8 °F 36.6 °F 39.2 °F 87% 29.68 in 10.0 mi East 11.5 mph - N/A   Overcast
10:16 PM 42.8 °F 37.5 °F 39.2 °F 87% 29.68 in 10.0 mi East 9.2 mph - N/A   Overcast
10:36 PM 42.8 °F 37.0 °F 39.2 °F 87% 29.68 in 10.0 mi East 10.4 mph 19.6 mph N/A   Overcast
10:56 PM 42.8 °F 36.2 °F 39.2 °F 87% 29.68 in 10.0 mi East 12.7 mph 20.7 mph N/A   Overcast
11:16 PM 44.6 °F 36.9 °F 42.8 °F 93% 29.68 in 10.0 mi ESE 18.4 mph - N/A   Overcast
11:36 PM 46.4 °F 38.7 °F 42.8 °F 87% 29.68 in 10.0 mi ESE 20.7 mph - N/A   Mostly Cloudy
11:56 PM 44.6 °F 36.9 °F 41.0 °F 87% 29.68 in 10.0 mi ESE 18.4 mph 23.0 mph N/A   Overcast